SKYSAT-C6 (42992 NORAD) Tracking and Keplerian Element Data

This shows tracking and keplerian element data for the satellite.

Feedback or suggestion? Click here.




ElementValue
Catalog42992
NameSKYSAT-C6
Epoch Orbit21665
Epoch Day261.87710392
Epoch Year2021
RAAN18.0013
Inclination97.2755
Eccentricity0.000279
Argument of Perigee83.332
Mean Anonmoly276.8244
Mean Motion15.40492047
Decay Rate2.951E-05
L11 42992U 17068F 21261.87710392 .00002951 00000-0 74856-4 0 9998
L22 42992 97.2755 18.0013 0002790 83.3320 276.8244 15.40492047216652

Live tracking and technical data element details for SKYSAT-C6 (NORAD 42992). SKYSAT-C6 can be tracked NOW for your location showing map with azimuth and elevation plus other details from your city location.

Track the satellite on the map from your city or location and see movement details for azimuth, elevation, latitude, longitude, range, height, and movement on the map or in text.







IsCatalogInMostPopularTable: catalog: 42992, numindb: 539
Update: records affected: 1



GetName: 42992 SKYSAT-C6

Hit Count: updated at: Sun, 26 Sep 2021 00:42:51 GMT